Location: Lafig�re
(44.4503°N, 4.0357°E)
Time: 11:26:10
(UTC+00:00)

Vanguard 2 - Pass Details

Date: 25 January 2021
Orbit: 552 x 2938 km, 32.9° (Epoch: 05 March)

Event Time Altitude Azimuth Distance (km) Brightness Sun altitude
Rises 19:05:53 0° 251° (WSW) 2,865 11.7 -25.3°
Reaches altitude 10° 19:08:29 10° 232° (SW) 2,120 10.5 -25.8°
Maximum altitude 19:11:54 19° 187° (S) 1,840 9.5 -26.4°
Enters shadow 19:13:16 18° 169° (SSE) 2,027 9.5 -26.6°
